Minneapolis, MN

11:18 AM CST on February 20, 2017 (GMT -0600)
Minneapolis-Saint Paul International

Weather History for KMSP - August, 2013

Change the Weather History Date:

Tuesday, August 6, 2013

  Actual Average Record
Temperature  
Mean Temperature 73 °F 73 °F  
Max Temperature 86 °F 82 °F 99 °F (2001)
Min Temperature 59 °F 63 °F 48 °F (1977)
Degree Days  
Heating Degree Days 0 0  
Month to date heating degree days 0 0  
Since 1 June heating degree days 50 49  
Since 1 July heating degree days 8 5  
Cooling Degree Days 8 8  
Month to date cooling degree days 30 48  
Year to date cooling degree days 569 524  
Since 1 June cooling degree days 516 482  
Growing Degree Days 22 (Base 50)    
Moisture  
Dew Point 61 °F    
Average Humidity 71    
Maximum Humidity 93    
Minimum Humidity 48    
Precipitation  
Precipitation 1.33 in 0.15 in 1.67 in (1995)
Month to date precipitation 1.98 0.90  
Year to date precipitation 26.35 18.77  
Snow  
Snow 0.00 in 0.00 in 0.00 in ()
Month to date snowfall 0.0 0.0  
Since 1 June snowfall 0.0 0.0  
Since 1 July snowfall 0.0 0.0  
Snow Depth 0.00 in    
Sea Level Pressure  
Sea Level Pressure 29.77 in    
Wind  
Wind Speed 6 mph (SW)    
Max Wind Speed 35 mph    
Max Gust Speed 47 mph    
Visibility 9 miles    
Events Rain , Hail , Thunderstorm    
T = Trace of Precipitation, MM = Missing Value Source: NWS Daily Summary

Daily Weather History Graph

Daily Weather History Graph

Search for Another Location

Airport or City:

Trip Planner

Search our weather history database for the weather conditions in past years. The results will help you decide how hot, cold, wet, or windy it might be!

Date:

Astronomy

Aug. 06, 2013 Rise Set
Actual Time 6:04 AM CDT 8:32 PM CDT
Civil Twilight 5:31 AM CDT 9:04 PM CDT
Nautical Twilight 4:50 AM CDT 9:45 PM CDT
Astronomical Twilight 4:03 AM CDT 10:32 PM CDT
Moon 5:59 AM CDT (8/6) 8:03 PM CDT (8/6)
Length of Visible Light 15h 33m
Length of Day
14h 27m
Waning Crescent, 0% of the Moon is Illuminated
Aug 6
Waning Crescent
Aug 6
New
Aug 14
First Quarter
Aug 20
Full
Aug 28
Last Quarter

Hourly Weather History & Observations

Time (CDT) Temp. Heat Index Dew Point Humidity Pressure Visibility Wind Dir Wind Speed Gust Speed Precip Events Conditions
12:53 AM 64.9 °F - 60.1 °F 84% 29.83 in 10.0 mi NW 4.6 mph - N/A   Clear
1:53 AM 66.0 °F - 60.1 °F 81% 29.83 in 10.0 mi Calm Calm - N/A   Clear
2:53 AM 63.0 °F - 60.1 °F 90% 29.83 in 10.0 mi WNW 5.8 mph - N/A   Clear
3:53 AM 62.1 °F - 59.0 °F 90% 29.82 in 10.0 mi WSW 3.5 mph - N/A   Partly Cloudy
4:53 AM 61.0 °F - 57.9 °F 90% 29.81 in 10.0 mi WSW 3.5 mph - N/A   Scattered Clouds
5:53 AM 60.1 °F - 57.0 °F 90% 29.82 in 10.0 mi NW 3.5 mph - N/A   Mostly Cloudy
6:53 AM 62.1 °F - 57.0 °F 84% 29.83 in 9.0 mi Calm Calm - N/A   Mostly Cloudy
7:53 AM 64.0 °F - 57.9 °F 80% 29.83 in 10.0 mi Calm Calm - N/A   Mostly Cloudy
8:53 AM 64.9 °F - 57.0 °F 75% 29.84 in 10.0 mi South 3.5 mph - N/A   Overcast
9:53 AM 66.9 °F - 55.9 °F 68% 29.82 in 10.0 mi ESE 4.6 mph - N/A   Overcast
10:53 AM 69.1 °F - 59.0 °F 70% 29.81 in 10.0 mi SE 6.9 mph - N/A   Mostly Cloudy
11:53 AM 73.0 °F - 61.0 °F 66% 29.80 in 10.0 mi South 9.2 mph - N/A   Mostly Cloudy
12:53 PM 75.0 °F - 63.0 °F 66% 29.78 in 10.0 mi Variable 4.6 mph - N/A   Scattered Clouds
1:53 PM 79.0 °F - 64.0 °F 60% 29.76 in 10.0 mi Variable 6.9 mph - N/A   Scattered Clouds
2:53 PM 82.0 °F 83.4 °F 64.0 °F 54% 29.75 in 10.0 mi South 6.9 mph 20.7 mph N/A   Scattered Clouds
3:53 PM 84.0 °F 84.9 °F 63.0 °F 49% 29.72 in 10.0 mi SSW 15.0 mph 26.5 mph N/A   Partly Cloudy
4:53 PM 84.0 °F 85.4 °F 64.0 °F 51% 29.71 in 10.0 mi WSW 12.7 mph 21.9 mph N/A   Scattered Clouds
5:53 PM 84.9 °F 86.1 °F 64.0 °F 49% 29.71 in 10.0 mi WSW 16.1 mph 21.9 mph N/A   Scattered Clouds
6:53 PM 82.9 °F 84.0 °F 63.0 °F 51% 29.69 in 10.0 mi SW 13.8 mph - N/A   Mostly Cloudy
7:17 PM 82.4 °F 83.4 °F 62.6 °F 51% 29.71 in 10.0 mi SW 6.9 mph - N/A Thunderstorm Thunderstorm
7:46 PM 73.4 °F - 66.2 °F 78% 29.76 in 0.5 mi NW 34.5 mph 47.2 mph 0.10 in Rain , Thunderstorm Heavy Thunderstorms and Rain
7:53 PM 66.0 °F - 63.0 °F 90% 29.74 in 0.8 mi East 8.1 mph 47.2 mph 0.53 in Rain , Thunderstorm Heavy Thunderstorms and Rain
7:55 PM 66.2 °F - 64.4 °F 94% 29.73 in 0.8 mi East 15.0 mph 47.2 mph 0.08 in Rain , Hail , Thunderstorm Heavy Thunderstorms with Hail
8:01 PM 66.2 °F - 64.4 °F 94% 29.75 in 9.0 mi East 9.2 mph 19.6 mph 0.31 in Rain , Thunderstorm Thunderstorms and Rain
8:21 PM 66.2 °F - 64.4 °F 94% 29.73 in 10.0 mi East 5.8 mph - 0.37 in Rain Light Rain
8:27 PM 66.2 °F - 64.4 °F 94% 29.73 in 10.0 mi Calm Calm - 0.37 in Rain , Thunderstorm Light Thunderstorms and Rain
8:53 PM 66.9 °F - 63.0 °F 87% 29.79 in 7.0 mi WNW 12.7 mph 41.4 mph 0.72 in Rain , Thunderstorm Heavy Thunderstorms and Rain
9:17 PM 68.0 °F - 60.8 °F 78% 29.77 in 10.0 mi WNW 11.5 mph 17.3 mph 0.08 in   Mostly Cloudy
9:34 PM 66.2 °F - 60.8 °F 83% 29.72 in 10.0 mi Calm Calm - 0.08 in   Mostly Cloudy
9:53 PM 66.0 °F - 61.0 °F 84% 29.71 in 10.0 mi Calm Calm - 0.08 in   Mostly Cloudy
10:53 PM 64.9 °F - 62.1 °F 90% 29.77 in 10.0 mi Calm Calm - N/A   Partly Cloudy
11:53 PM 64.0 °F - 62.1 °F 93% 29.78 in 10.0 mi Calm Calm - N/A   Clear